Sierra Vista, AZ

1:41 AM MST on December 08, 2019 (GMT -0700)
Sierra Vista Municipal-Libby Army Air Field

Weather History for KFHU - November, 2019

Change the Weather History Date:

Saturday, November 16, 2019

  Actual Average Record
Temperature  
Mean Temperature 60 °F -  
Max Temperature 73 °F 66 °F 83 °F (2017)
Min Temperature 46 °F 44 °F 26 °F (1993)
Degree Days  
Heating Degree Days 6    
Growing Degree Days 10 (Base 50)    
Moisture  
Dew Point 32 °F    
Average Humidity 35    
Maximum Humidity 50    
Minimum Humidity 22    
Precipitation  
Precipitation 0.00 in - - ()
Sea Level Pressure  
Sea Level Pressure 29.99 in    
Wind  
Wind Speed 3 mph ()    
Max Wind Speed 9 mph    
Max Gust Speed -    
Visibility 9.9 miles    
Events      
Averages and records for this station are not official NWS values.
T = Trace of Precipitation, MM = Missing Value Source: Averaged Metar Reports

Daily Weather History Graph

Daily Weather History Graph

Search for Another Location

Airport or City:

Astronomy

Nov. 16, 2019 Rise Set
Actual Time 6:50 AM MST 5:21 PM MST
Civil Twilight 6:24 AM MST 5:47 PM MST
Nautical Twilight 5:54 AM MST 6:17 PM MST
Astronomical Twilight 5:25 AM MST 6:46 PM MST
Moon 9:04 PM MST (11/16) 10:40 AM MST (11/16)
Length of Visible Light 11h 23m
Length of Day
10h 31m
Waning Gibbous, 82% of the Moon is Illuminated
Nov 16
Waning Gibbous
Nov 19
Last Quarter
Nov 26
New
Dec 3
First Quarter
Dec 11
Full

Hourly Weather History & Observations

Time (MST) Temp. Dew Point Humidity Pressure Visibility Wind Dir Wind Speed Gust Speed Precip Events Conditions
12:58 AM 50.7 °F 27.5 °F 41% 29.99 in 10.0 mi WSW 6.9 mph - N/A   Clear
1:58 AM 53.8 °F 28.6 °F 38% 29.99 in 10.0 mi Calm Calm - N/A   Clear
2:58 AM 51.1 °F 28.6 °F 42% 29.99 in 10.0 mi West 4.6 mph - N/A   Scattered Clouds
3:58 AM 53.2 °F 28.6 °F 39% 29.99 in 10.0 mi WSW 4.6 mph - N/A   Partly Cloudy
4:58 AM 50.0 °F 29.5 °F 45% 30.01 in 10.0 mi Calm Calm - N/A   Clear
5:58 AM 47.1 °F 29.1 °F 50% 30.01 in 10.0 mi Calm Calm - N/A   Partly Cloudy
6:58 AM 46.9 °F 29.3 °F 50% 30.04 in 8.0 mi South 3.5 mph - N/A   Clear
7:58 AM 50.0 °F 31.1 °F 48% 30.06 in 10.0 mi Calm Calm - N/A   Overcast
8:33 AM 57.2 °F 30.2 °F 36% 30.06 in 10.0 mi Calm Calm - N/A   Scattered Clouds
8:58 AM 60.1 °F 32.2 °F 35% 30.04 in 10.0 mi ESE 8.1 mph - N/A   Partly Cloudy
9:58 AM 66.2 °F 33.3 °F 29% 30.03 in 10.0 mi SE 4.6 mph - N/A   Clear
10:58 AM 69.1 °F 33.3 °F 27% 30.01 in 10.0 mi East 4.6 mph - N/A   Clear
11:22 AM 71.6 °F 33.8 °F 25% 29.99 in 10.0 mi ESE 4.6 mph - N/A   Clear
12:28 PM 73.4 °F 33.8 °F 23% 29.96 in 10.0 mi East 4.6 mph - N/A   Clear
12:58 PM 72.9 °F 33.4 °F 24% 29.94 in 10.0 mi Calm Calm - N/A   Clear
1:21 PM 73.4 °F 32.0 °F 22% 29.92 in 9.0 mi Calm Calm - N/A   Clear
1:58 PM 73.8 °F 32.2 °F 22% 29.90 in 10.0 mi SSE 8.1 mph - N/A   Clear
3:58 PM 73.6 °F 32.4 °F 22% 29.91 in 10.0 mi NNW 6.9 mph - N/A   Scattered Clouds
4:58 PM 71.1 °F 33.4 °F 25% 29.94 in 10.0 mi WSW 8.1 mph - N/A   Mostly Cloudy
5:58 PM 63.1 °F 34.2 °F 34% 29.97 in 10.0 mi Calm Calm - N/A   Clear
6:58 PM 61.3 °F 35.8 °F 39% 30.01 in 10.0 mi WSW 9.2 mph - N/A   Clear
7:58 PM 60.6 °F 33.6 °F 36% 29.99 in 10.0 mi SW 9.2 mph - N/A   Clear
8:58 PM 59.5 °F 32.2 °F 36% 29.97 in 10.0 mi WSW 8.1 mph - N/A   Clear
9:58 PM 57.9 °F 33.1 °F 39% 29.97 in 10.0 mi SW 8.1 mph - N/A   Clear
10:58 PM 55.9 °F 32.2 °F 41% 29.99 in 10.0 mi Calm Calm - N/A   Clear
11:58 PM 55.8 °F 30.9 °F 39% 29.99 in 10.0 mi Calm Calm - N/A   Clear